STARLINK-34942, 65181

Orbit data source: Space-Track

STARLINK-34942, 65181 is a payload satellite owned by SpaceX/Seattle (US) in SSO that was launched on Thu, 14 Aug 2025 UTC via an FALCON 9 launch vehicle from the Air Force Western Test Range (AFWTR). Payload-class satellites include a variety of spacecraft equipped with specific instruments for various scientific and technological missions. These include communications satellites like Starlink; space stations such as the ISS; scientific satellites like the Hubble; Earth observation satellites from companies like Planet Labs, Umbra, and HawkEye 360; GPS; miniature CubeSats for education and research; and military/defense satellites.

Loading next visibility...
Identifier
65181, 2025-175H
Orbit
SSO
Country
Flag of USUS
Related business
Manufacturer
SpaceX/Seattle
Mission
Operational Commercial Communications
Bus & Motor
STARLINK V2MO, Unknown motor
Mass
575 kg wet, ~530 kg dry
Launch date (UTC)
2025-08-14 (10 months ago)
Launch vehicle
FALCON 9
Launch site
Air Force Western Test Range (AFWTR)
Object type
Payload
Rocket body
Debris
Shape & HBR
Box + 2 Pan, 17.7 m
Radar Cross Section
36.964 m², Large (>1 m²)

Expand to show TLE details & history
Last TLE update: 15 hours ago

TLE from 15 hours ago
0 STARLINK-34942
1 65181U 25175H   26171.20856639  .00003718  00000-0  26143-3 0  9995
2 65181  97.3432  42.5713 0001573  90.1081 270.0327 15.05660924 48032
Epoch: 2026-06-20T05:00Z
TLE epoch observation values (Epoch: 2026-06-20T05:00:20.136Z)
Latitude
0.00003°
Longitude
59.06091°
Altitude
552.55 km
Speed
7.585 km/s
True Right ascension
02h 50m 17s
True Declination
0° 00' 00"
Sunlit
Object was in daylight at epoch
Visualization orbit readout
Latitude
Unknown
Longitude
Unknown
Altitude
Unknown
Speed
Unknown
Apparent Right ascension
Unknown
Apparent Declination
Unknown
Sunlit
N/A
Visualization observer readout
Local Sidereal Time
07:13:20
Azimuth
Unknown
Elevation
Unknown
Doppler factor
Unknown
Orbital elements
Apogee altitude
547.549 km
Perigee altitude
545.371 km
Semi-major axis
6,924.597 km
Eccentricity
0.00016
Inclination
97.3432°
RAAN
42.5713°
Arg. of periapsis
90.1081°
True anomaly
270.01467°
Mean anomaly
270.0327°
Eccentric anomaly
270.02369°
Mean motion
3.76662 °/min
Orbital period
95.58 mins
BSTAR
0.00026143
Loading maneuver chart data...
Computing Atmospheric mass density...
Loading historical data...
Loading historical data...
Loading historical data...
Loading historical data...
Loading historical data...
Loading historical data...
Loading historical data...

Documentation

Showing up to 5 results
|